User: anonymous   Login
Location: Unspecified
(0.0000°N, 0.0000°E)
Time: 01:07:57
(UTC+02:00)
Language:

H-2A R/B - Orbit

View from above orbital plane
View from above orbital plane
View from above satellite
View from above satellite

Ground track
Ground track

The orbit data is extracted from the following two-line orbital elements,

1 28932U 06002B   14297.15333101  .00004405  00000-0  44402-3 0  8407
2 28932 098.2832 163.4798 0094054 233.0733 287.4331 14.88435977473760
Epoch (UTC): 24 October 2014 03:40:47
Eccentricity: 0.0094054
inclination: 98.2832°
perigee height: 537 km
apogee height: 668 km
right ascension of ascending node: 163.4798°
argument of perigee: 233.0733°
revolutions per day: 14.88435977
mean anomaly at epoch: 287.4331°
orbit number at epoch: 47376

The dashed part of the orbit path shows where the satellite is in the earth's shadow,  

DLR